Location: Unspecified
(0.0000°N, 0.0000°E)
Time: 18:50:47
(UTC+00:00)

Envisat - Pass Details

Date: 11 December 2017
Orbit: 764 x 766 km, 98.2° (Epoch: 10 December)

Event Time Altitude Azimuth Distance (km) Brightness Sun altitude
Rises 19:49:24 0° 161° (SSE) 3,230 6.3 -26.5°
Reaches altitude 10° 19:51:45 10° 157° (SSE) 2,302 5.5 -27.0°
Enters shadow 19:53:14 20° 153° (SSE) 1,732 4.8 -27.3°
